Regional Weather Roundup
Issued by NWS

Home | Current Version | Previous Version | Text Only | Print | Product List | Glossary Off
Versions: 1 2 3 4 5 6 7 8 9 10 11 12 13 14 15 16 17 18 19 20 21 22 23 24 25 26 27 28 29 30 31 32 33 34 35 36 37 38 39 40 41 42 43 44 45 46 47 48 49 50

625
ASUS43 KTOP 191759
RWRKS

WEATHER ROUNDUP FOR KANSAS
NATIONAL WEATHER SERVICE GOODLAND KS
100 PM CDT THU APR 19 2018

NOTE:  "FAIR" INDICATES FEW OR NO CLOUDS BELOW 12,000 FEET WITH NO
SIGNIFICANT WEATHER AND/OR OBSTRUCTIONS TO VISIBILITY.

KSZ001>006-013>018-027>032-041>047-191900-
NORTHWEST KANSAS

CITY           SKY/WX    TMP DP  RH WIND       PRES   REMARKS
GOODLAND       SUNNY     56  28  34 SE18G31   30.34F
6HR MIN TEMP:  31; 6HR MAX TEMP:  57;

HAYS           SUNNY     53  28  38 E7        30.44F
HILL CITY      SUNNY     54  31  41 E8G18     30.43F
6HR MIN TEMP:  24; 6HR MAX TEMP:  54;

RUSSELL        SUNNY     53  28  38 E13       30.43F
6HR MIN TEMP:  28; 6HR MAX TEMP:  54;

$$

KSZ061>065-074>080-084>089-191900-
SOUTHWEST KANSAS

CITY           SKY/WX    TMP DP  RH WIND       PRES   REMARKS
DODGE CITY     SUNNY     57  30  35 SE8       30.41F
6HR MIN TEMP:  30; 6HR MAX TEMP:  58;

GARDEN CITY    SUNNY     57  28  33 E13G18    30.39F
6HR MIN TEMP:  28; 6HR MAX TEMP:  57;

GREAT BEND     SUNNY     53  28  38 NE9       30.44F
LIBERAL        MOSUNNY   59  29  31 S13       30.40F
$$

KSZ066>073-081>083-090>101-191900-
SOUTHEAST KANSAS

CITY           SKY/WX    TMP DP  RH WIND       PRES   REMARKS
CHANUTE        SUNNY     53  27  36 NE8G22    30.45F
6HR MIN TEMP:  35; 6HR MAX TEMP:  54;

COFFEYVILLE    SUNNY     55  31  39 NE10G21   30.45F
6HR MIN TEMP:  34; 6HR MAX TEMP:  55;

HUTCHINSON     SUNNY     54  28  36 N13G22    30.45F
6HR MIN TEMP:  26; 6HR MAX TEMP:  54;

MEDICINE LODGE   N/A     57  30  35 NE9       30.43F
NEWTON         SUNNY     50  27  40 VRB7      30.46F
PARSONS        SUNNY     54  28  36 N9        30.46F
6HR MIN TEMP:  31; 6HR MAX TEMP:  54;

WICHITA INTL   MOSUNNY   54  28  36 N20       30.44F
6HR MIN TEMP:  34; 6HR MAX TEMP:  55;

WICHITA JABRA  SUNNY     54  27  35 N10       30.45F
6HR MIN TEMP:  33; 6HR MAX TEMP:  54;

WICHITA MCCONL SUNNY     53  26  35 NE16      30.44F
WINFIELD       SUNNY     56  31  38 NE13      30.45F
6HR MIN TEMP:  30; 6HR MAX TEMP:  56;

$$

KSZ007>012-019>026-033>040-048>060-102>105-191900-
NORTHEAST KANSAS

CITY           SKY/WX    TMP DP  RH WIND       PRES   REMARKS
CONCORDIA      SUNNY     52  27  38 VRB7      30.47F
6HR MIN TEMP:  28; 6HR MAX TEMP:  52;

EMPORIA        SUNNY     51  27  39 NE10G20   30.46F
6HR MIN TEMP:  30; 6HR MAX TEMP:  52;

LAWRENCE       SUNNY     53  30  41 NE6       30.47F
6HR MIN TEMP:  30; 6HR MAX TEMP:  54;

MANHATTAN      SUNNY     52  28  39 E5        30.48S
6HR MIN TEMP:  30; 6HR MAX TEMP:  52;

OLATHE IND     MOSUNNY   51  31  46 VRB7G17   30.47S
6HR MIN TEMP:  32; 6HR MAX TEMP:  51;

OLATHE EXE     SUNNY     49  30  48 VRB6      30.45F
6HR MIN TEMP:  33; 6HR MAX TEMP:  50;

SALINA         SUNNY     52  29  41 CALM      30.48F
6HR MIN TEMP:  30; 6HR MAX TEMP:  54;

TOPEKA BILLARD SUNNY     54  32  43 N7G18     30.47F
6HR MIN TEMP:  33; 6HR MAX TEMP:  54;

TOPEKA FORBES  SUNNY     53  29  39 NE7G18    30.47F
6HR MIN TEMP:  35; 6HR MAX TEMP:  53;

$$




USA.gov is the U.S. government's official web portal to all federal, state and local government web resources and services.